Terminal Aerodrome Forecast
Issued by NWS

Home | Current Version | Previous Version | Text Only | Print | Product List | Glossary On
Versions: 1 2 3 4 5 6 7 8 9 10 11 12 13 14 15 16 17 18 19 20 21 22 23 24 25 26 27 28
585
FTUS43 KGRR 192341
TAFMKG
TAF
KMKG 192341Z 2000/2024 14005KT 6SM BR SCT015 BKN100
     FM200200 12004KT P6SM BKN008
     FM200300 10004KT 5SM BR VCSH OVC007
     FM200600 09005KT 3SM -RA BR OVC006
     FM201200 09006KT 2SM -RA BR OVC004
     FM202100 08006KT 4SM BR OVC015=

USA.gov is the U.S. government's official web portal to all federal, state and local government web resources and services.